| time (UTC) | temp F | wind direction | speed knots | gust knots | rain 1hr in | rain 24hr in | rain mn in | humidity % | barometer mb |
| 20260507001542 | 56 | 224 | 0.0 | 4.3 | 0.00 | 0.04 | 0.04 | 74 | 1008.2 |
| 20260507001047 | 56 | 133 | 0.0 | 3.5 | 0.00 | 0.04 | 0.04 | 74 | 1008.1 |
| 20260507000503 | 56 | 243 | 0.9 | 5.2 | 0.00 | 0.04 | 0.04 | 74 | 1008.3 |
| 20260507000014 | 56 | 244 | 0.9 | 5.2 | 0.00 | 0.04 | 0.04 | 74 | 1008.2 |
| 20260506235526 | 56 | 257 | 0.9 | 3.5 | 0.00 | 0.04 | 0.04 | 74 | 1008.4 |
| 20260506235035 | 56 | 279 | 0.9 | 3.5 | 0.00 | 0.04 | 0.04 | 74 | 1008.3 |
| 20260506234554 | 56 | 286 | 0.0 | 3.5 | 0.00 | 0.04 | 0.04 | 74 | 1008.2 |
| 20260506234100 | 56 | 291 | 0.9 | 3.5 | 0.00 | 0.04 | 0.04 | 74 | 1008.2 |
| 20260506234002 | 56 | 291 | 0.9 | 3.5 | 0.00 | 0.04 | 0.04 | 74 | 1008.2 |
| 20260506233508 | 56 | 291 | 0.9 | 3.5 | 0.00 | 0.04 | 0.04 | 74 | 1008.2 |
| 20260506233007 | 56 | 239 | 0.9 | 3.5 | 0.00 | 0.04 | 0.04 | 74 | 1008.2 |
| 20260506232513 | 56 | 241 | 0.0 | 2.6 | 0.00 | 0.04 | 0.04 | 74 | 1008.1 |
| 20260506232014 | 56 | 240 | 0.0 | 1.7 | 0.00 | 0.04 | 0.04 | 74 | 1008.1 |
| 20260506231520 | 56 | 239 | 0.0 | 1.7 | 0.00 | 0.04 | 0.04 | 74 | 1008.1 |
| 20260506231020 | 56 | 240 | 0.0 | 3.5 | 0.00 | 0.04 | 0.04 | 74 | 1008.1 |
| 20260506230525 | 56 | 240 | 0.0 | 3.5 | 0.00 | 0.04 | 0.04 | 74 | 1008.0 |
| 20260506230025 | 56 | 241 | 0.0 | 2.6 | 0.00 | 0.04 | 0.04 | 74 | 1008.0 |
| 20260506225531 | 57 | 173 | 0.0 | 2.6 | 0.00 | 0.04 | 0.04 | 74 | 1008.0 |
| 20260506225035 | 57 | 171 | 0.0 | 2.6 | 0.00 | 0.04 | 0.04 | 74 | 1008.0 |
| 20260506224601 | 56 | 255 | 0.0 | 1.7 | 0.00 | 0.04 | 0.04 | 74 | 1008.0 |
| 20260506224059 | 56 | 255 | 0.0 | 0.9 | 0.00 | 0.04 | 0.04 | 73 | 1007.9 |
| 20260506224001 | 56 | 255 | 0.0 | 0.9 | 0.00 | 0.04 | 0.04 | 74 | 1007.9 |
| 20260506223515 | 56 | 238 | 0.0 | 1.7 | 0.00 | 0.04 | 0.04 | 73 | 1007.8 |
| 20260506223025 | 56 | 251 | 0.0 | 2.6 | 0.00 | 0.04 | 0.04 | 73 | 1007.8 |
| 20260506222539 | 56 | 263 | 0.0 | 2.6 | 0.00 | 0.04 | 0.04 | 73 | 1007.8 |
| 20260506222049 | 56 | 359 | 0.0 | 1.7 | 0.00 | 0.04 | 0.04 | 73 | 1007.7 |
| 20260506221505 | 56 | 354 | 0.0 | 4.3 | 0.00 | 0.04 | 0.04 | 73 | 1007.7 |
| 20260506221011 | 56 | 266 | 0.0 | 3.5 | 0.00 | 0.04 | 0.04 | 73 | 1007.7 |
| 20260506220526 | 56 | 222 | 0.0 | 2.6 | 0.00 | 0.04 | 0.04 | 73 | 1007.6 |
| 20260506220038 | 56 | 141 | 0.9 | 4.3 | 0.00 | 0.04 | 0.04 | 73 | 1007.7 |
| 20260506215549 | 56 | 171 | 1.7 | 4.3 | 0.00 | 0.04 | 0.04 | 73 | 1007.7 |
| 20260506215059 | 56 | 227 | 0.0 | 3.5 | 0.00 | 0.04 | 0.04 | 73 | 1007.7 |
| 20260506215007 | 56 | 227 | 0.0 | 3.5 | 0.00 | 0.04 | 0.04 | 73 | 1007.7 |
| 20260506214516 | 56 | 265 | 0.0 | 3.5 | 0.00 | 0.04 | 0.04 | 73 | 1007.6 |
| 20260506214028 | 56 | 186 | 0.9 | 3.5 | 0.00 | 0.04 | 0.04 | 73 | 1007.7 |
| 20260506213527 | 56 | 195 | 0.9 | 3.5 | 0.00 | 0.04 | 0.04 | 73 | 1007.7 |
| 20260506213034 | 57 | 228 | 0.0 | 3.5 | 0.00 | 0.04 | 0.04 | 73 | 1007.7 |
| 20260506212533 | 57 | 220 | 1.7 | 3.5 | 0.00 | 0.04 | 0.04 | 73 | 1007.5 |
| 20260506212040 | 57 | 160 | 0.9 | 4.3 | 0.00 | 0.04 | 0.04 | 73 | 1007.5 |
| 20260506211540 | 57 | 122 | 0.9 | 5.2 | 0.00 | 0.04 | 0.04 | 73 | 1007.6 |
| 20260506211046 | 57 | 14 | 0.9 | 6.1 | 0.00 | 0.04 | 0.04 | 73 | 1007.6 |
| 20260506210550 | 57 | 246 | 1.7 | 6.1 | 0.01 | 0.04 | 0.04 | 73 | 1007.7 |
| 20260506210100 | 57 | 195 | 0.9 | 3.5 | 0.01 | 0.04 | 0.04 | 73 | 1007.6 |
| 20260506205509 | 57 | 196 | 0.0 | 2.6 | 0.01 | 0.04 | 0.04 | 73 | 1007.7 |
| 20260506205021 | 57 | 200 | 0.0 | 2.6 | 0.01 | 0.04 | 0.04 | 73 | 1007.8 |
| 20260506204521 | 57 | 227 | 0.9 | 3.5 | 0.01 | 0.04 | 0.04 | 73 | 1007.8 |
| 20260506204035 | 57 | 162 | 0.9 | 3.5 | 0.01 | 0.04 | 0.04 | 73 | 1008.1 |
| 20260506203544 | 57 | 238 | 0.9 | 3.5 | 0.01 | 0.04 | 0.04 | 73 | 1008.1 |
| 20260506203056 | 57 | 167 | 0.9 | 3.5 | 0.01 | 0.04 | 0.04 | 73 | 1008.1 |
| 20260506202507 | 57 | 238 | 0.9 | 5.2 | 0.01 | 0.04 | 0.04 | 73 | 1008.1 |
| 20260506202021 | 57 | 214 | 0.0 | 5.2 | 0.01 | 0.04 | 0.04 | 72 | 1008.1 |
| 20260506201527 | 57 | 222 | 1.7 | 4.3 | 0.01 | 0.04 | 0.04 | 72 | 1008.2 |
| 20260506201039 | 58 | 214 | 0.9 | 4.3 | 0.01 | 0.04 | 0.04 | 72 | 1008.1 |
| 20260506200539 | 58 | 198 | 0.0 | 4.3 | 0.00 | 0.03 | 0.03 | 72 | 1008.0 |
| 20260506200045 | 58 | 166 | 0.0 | 4.3 | 0.00 | 0.03 | 0.03 | 72 | 1007.9 |
| 20260506195545 | 58 | 149 | 0.9 | 7.0 | 0.00 | 0.03 | 0.03 | 72 | 1008.0 |
| 20260506195054 | 58 | 140 | 0.9 | 7.0 | 0.00 | 0.03 | 0.03 | 72 | 1008.2 |
| 20260506194603 | 58 | 198 | 0.9 | 7.0 | 0.00 | 0.03 | 0.03 | 72 | 1008.2 |
| 20260506194057 | 58 | 128 | 0.9 | 7.0 | 0.00 | 0.03 | 0.03 | 72 | 1008.3 |
| 20260506193559 | 59 | 244 | 0.9 | 3.5 | 0.00 | 0.03 | 0.03 | 72 | 1008.2 |
| 20260506193502 | 59 | 247 | 0.9 | 3.5 | 0.00 | 0.03 | 0.03 | 72 | 1008.3 |
| 20260506193013 | 59 | 124 | 0.9 | 7.0 | 0.00 | 0.03 | 0.03 | 73 | 1008.3 |
| 20260506192524 | 59 | 116 | 0.9 | 7.0 | 0.00 | 0.03 | 0.03 | 73 | 1008.4 |
| 20260506192035 | 59 | 158 | 1.7 | 7.0 | 0.00 | 0.03 | 0.03 | 72 | 1008.3 |
| 20260506191541 | 59 | 209 | 2.6 | 7.8 | 0.00 | 0.03 | 0.03 | 72 | 1008.4 |
| 20260506191057 | 59 | 187 | 1.7 | 7.0 | 0.00 | 0.03 | 0.03 | 72 | 1008.4 |
| 20260506190505 | 59 | 215 | 0.0 | 6.1 | 0.00 | 0.03 | 0.03 | 73 | 1008.7 |
| 20260506190019 | 59 | 96 | 1.7 | 4.3 | 0.01 | 0.03 | 0.03 | 72 | 1008.7 |
| 20260506185525 | 59 | 228 | 1.7 | 7.8 | 0.01 | 0.03 | 0.03 | 72 | 1008.9 |
| 20260506185031 | 59 | 187 | 2.6 | 7.8 | 0.01 | 0.03 | 0.03 | 72 | 1008.9 |
| 20260506184533 | 59 | 155 | 2.6 | 7.0 | 0.01 | 0.03 | 0.03 | 73 | 1008.8 |
| 20260506184041 | 58 | 234 | 1.7 | 9.6 | 0.01 | 0.03 | 0.03 | 72 | 1009.0 |
| 20260506183545 | 58 | 220 | 3.5 | 9.6 | 0.01 | 0.03 | 0.03 | 72 | 1009.2 |
| 20260506183106 | 58 | 216 | 0.9 | 7.0 | 0.01 | 0.03 | 0.03 | 72 | 1009.1 |
| 20260506182511 | 58 | 192 | 1.7 | 7.0 | 0.02 | 0.03 | 0.03 | 72 | 1009.0 |
| 20260506182017 | 58 | 204 | 1.7 | 4.3 | 0.02 | 0.03 | 0.03 | 72 | 1009.1 |
| 20260506181535 | 58 | 169 | 0.9 | 7.8 | 0.02 | 0.03 | 0.03 | 72 | 1009.2 |
| 20260506181042 | 58 | 86 | 1.7 | 7.8 | 0.03 | 0.03 | 0.03 | 72 | 1009.2 |
| 20260506180557 | 59 | 100 | 1.7 | 7.0 | 0.03 | 0.03 | 0.03 | 72 | 1009.2 |
| 20260506180006 | 59 | 119 | 1.7 | 7.8 | 0.02 | 0.02 | 0.02 | 72 | 1009.0 |
| 20260506175514 | 59 | 174 | 2.6 | 7.8 | 0.02 | 0.02 | 0.02 | 72 | 1009.2 |
| 20260506175024 | 59 | 156 | 4.3 | 7.0 | 0.02 | 0.02 | 0.02 | 72 | 1009.2 |
| 20260506174537 | 59 | 106 | 0.9 | 3.5 | 0.02 | 0.02 | 0.02 | 72 | 1009.3 |
| 20260506174048 | 59 | 157 | 0.9 | 3.5 | 0.02 | 0.02 | 0.02 | 72 | 1009.6 |
| 20260506173558 | 59 | 139 | 0.9 | 4.3 | 0.02 | 0.02 | 0.02 | 73 | 1009.7 |
| 20260506173501 | 60 | 120 | 0.9 | 3.5 | 0.02 | 0.02 | 0.02 | 73 | 1009.8 |
| 20260506173008 | 60 | 155 | 0.0 | 5.2 | 0.01 | 0.01 | 0.02 | 73 | 1010.0 |
| 20260506172517 | 60 | 144 | 0.9 | 5.2 | 0.01 | 0.01 | 0.01 | 73 | 1010.0 |
| 20260506172017 | 60 | 247 | 0.0 | 4.3 | 0.01 | 0.01 | 0.01 | 73 | 1010.1 |
| 20260506171524 | 60 | 201 | 1.7 | 5.2 | 0.01 | 0.01 | 0.01 | 73 | 1010.0 |
| 20260506171023 | 60 | 224 | 0.9 | 3.5 | 0.00 | 0.00 | 0.00 | 73 | 1010.0 |
| 20260506170530 | 61 | 2 | 0.9 | 3.5 | 0.00 | 0.00 | 0.00 | 73 | 1010.1 |
| 20260506170036 | 61 | 168 | 0.9 | 6.1 | 0.00 | 0.00 | 0.00 | 72 | 1010.3 |
| 20260506165539 | 61 | 221 | 2.6 | 6.1 | 0.00 | 0.00 | 0.00 | 72 | 1010.4 |
| 20260506165043 | 61 | 164 | 0.0 | 3.5 | 0.00 | 0.00 | 0.00 | 71 | 1010.4 |
| 20260506164558 | 61 | 145 | 0.9 | 8.7 | 0.00 | 0.00 | 0.00 | 71 | 1010.4 |
| 20260506164058 | 61 | 245 | 2.6 | 8.7 | 0.00 | 0.00 | 0.00 | 70 | 1010.5 |
| 20260506163512 | 62 | 199 | 0.9 | 4.3 | 0.00 | 0.00 | 0.00 | 70 | 1010.5 |
| 20260506163020 | 62 | 218 | 0.9 | 7.0 | 0.00 | 0.00 | 0.00 | 70 | 1010.6 |
| 20260506162529 | 62 | 222 | 0.9 | 7.0 | 0.00 | 0.00 | 0.00 | 69 | 1010.5 |
| 20260506162037 | 62 | 226 | 1.7 | 4.3 | 0.00 | 0.00 | 0.00 | 69 | 1010.5 |
| 20260506161600 | 62 | 231 | 1.7 | 7.8 | 0.00 | 0.00 | 0.00 | 69 | 1010.4 |
| 20260506161058 | 62 | 166 | 1.7 | 10.4 | 0.00 | 0.00 | 0.00 | 68 | 1010.6 |
| 20260506161000 | 62 | 247 | 1.7 | 10.4 | 0.00 | 0.00 | 0.00 | 68 | 1010.6 |
| 20260506160511 | 63 | 209 | 0.9 | 10.4 | 0.00 | 0.00 | 0.00 | 68 | 1010.6 |
| 20260506160017 | 63 | 85 | 3.5 | 9.6 | 0.00 | 0.00 | 0.00 | 67 | 1010.7 |
| 20260506155522 | 63 | 189 | 2.6 | 9.6 | 0.00 | 0.00 | 0.00 | 68 | 1010.8 |
| 20260506155025 | 63 | 218 | 1.7 | 6.1 | 0.00 | 0.00 | 0.00 | 68 | 1010.9 |
| 20260506154529 | 63 | 247 | 1.7 | 6.1 | 0.00 | 0.00 | 0.00 | 68 | 1010.9 |
| 20260506154029 | 63 | 222 | 1.7 | 6.1 | 0.00 | 0.00 | 0.00 | 68 | 1010.9 |
| 20260506153534 | 63 | 130 | 1.7 | 9.6 | 0.00 | 0.00 | 0.00 | 68 | 1011.0 |
| 20260506153034 | 63 | 173 | 1.7 | 9.6 | 0.00 | 0.00 | 0.00 | 68 | 1011.0 |
| 20260506152541 | 63 | 160 | 1.7 | 7.0 | 0.00 | 0.00 | 0.00 | 67 | 1010.9 |
| 20260506152041 | 63 | 143 | 3.5 | 7.8 | 0.00 | 0.00 | 0.00 | 67 | 1010.7 |
| 20260506151546 | 63 | 164 | 2.6 | 6.1 | 0.00 | 0.00 | 0.00 | 67 | 1010.6 |
| 20260506151046 | 63 | 156 | 0.9 | 7.8 | 0.00 | 0.00 | 0.00 | 68 | 1010.6 |
| 20260506150553 | 63 | 167 | 2.6 | 7.8 | 0.00 | 0.00 | 0.00 | 67 | 1010.7 |
| 20260506150058 | 64 | 138 | 1.7 | 7.8 | 0.00 | 0.00 | 0.00 | 67 | 1010.6 |
| 20260506150003 | 64 | 188 | 1.7 | 7.8 | 0.00 | 0.00 | 0.00 | 67 | 1010.6 |
| 20260506145512 | 64 | 226 | 1.7 | 7.8 | 0.00 | 0.00 | 0.00 | 67 | 1010.8 |
| 20260506145023 | 64 | 144 | 0.9 | 7.8 | 0.00 | 0.00 | 0.00 | 67 | 1010.7 |
| 20260506144528 | 64 | 236 | 2.6 | 10.4 | 0.00 | 0.00 | 0.00 | 67 | 1010.8 |
| 20260506144041 | 64 | 194 | 3.5 | 11.3 | 0.00 | 0.00 | 0.00 | 66 | 1010.9 |
| 20260506143548 | 65 | 139 | 3.5 | 11.3 | 0.00 | 0.00 | 0.00 | 66 | 1011.0 |
| 20260506143005 | 65 | 226 | 1.7 | 10.4 | 0.00 | 0.00 | 0.00 | 66 | 1011.1 |
| 20260506142502 | 65 | 228 | 3.5 | 9.6 | 0.00 | 0.00 | 0.00 | 66 | 1011.1 |
| 20260506142008 | 65 | 163 | 2.6 | 10.4 | 0.00 | 0.00 | 0.00 | 66 | 1011.0 |
| 20260506141511 | 65 | 213 | 2.6 | 9.6 | 0.00 | 0.00 | 0.00 | 66 | 1011.0 |
| 20260506141018 | 64 | 123 | 1.7 | 9.6 | 0.00 | 0.00 | 0.00 | 66 | 1011.0 |
| 20260506140525 | 64 | 307 | 2.6 | 9.6 | 0.00 | 0.00 | 0.00 | 66 | 1011.1 |
| 20260506140041 | 64 | 217 | 3.5 | 9.6 | 0.00 | 0.00 | 0.00 | 66 | 1011.2 |
| 20260506135541 | 63 | 143 | 1.7 | 13.9 | 0.00 | 0.00 | 0.00 | 66 | 1011.2 |
| 20260506135052 | 63 | 132 | 2.6 | 13.9 | 0.00 | 0.00 | 0.00 | 66 | 1011.2 |
| 20260506134505 | 63 | 205 | 1.7 | 10.4 | 0.00 | 0.00 | 0.00 | 66 | 1011.1 |
| 20260506134017 | 63 | 197 | 1.7 | 7.0 | 0.00 | 0.00 | 0.00 | 67 | 1011.6 |
| 20260506133520 | 62 | 247 | 1.7 | 7.8 | 0.00 | 0.00 | 0.00 | 67 | 1011.0 |
| 20260506133041 | 62 | 207 | 1.7 | 7.0 | 0.00 | 0.00 | 0.00 | 66 | 1010.8 |
| 20260506132526 | 62 | 201 | 1.7 | 7.0 | 0.00 | 0.00 | 0.00 | 67 | 1010.9 |
| 20260506132034 | 62 | 219 | 2.6 | 7.0 | 0.00 | 0.00 | 0.00 | 66 | 1010.8 |
| 20260506131537 | 62 | 150 | 0.9 | 6.1 | 0.00 | 0.00 | 0.00 | 67 | 1010.8 |
| 20260506131040 | 62 | 103 | 1.7 | 7.8 | 0.00 | 0.00 | 0.00 | 67 | 1010.8 |
| 20260506130546 | 62 | 209 | 3.5 | 7.0 | 0.00 | 0.00 | 0.00 | 66 | 1010.8 |
| 20260506130059 | 62 | 188 | 2.6 | 8.7 | 0.00 | 0.00 | 0.00 | 66 | 1010.9 |
| 20260506125602 | 62 | 189 | 2.6 | 8.7 | 0.00 | 0.00 | 0.00 | 66 | 1011.0 |
| 20260506125503 | 62 | 166 | 1.7 | 8.7 | 0.00 | 0.00 | 0.00 | 66 | 1011.0 |
| 20260506125010 | 62 | 161 | 2.6 | 8.7 | 0.00 | 0.00 | 0.00 | 66 | 1011.1 |
| 20260506124515 | 61 | 232 | 0.9 | 11.3 | 0.00 | 0.00 | 0.00 | 66 | 1011.1 |
| 20260506124026 | 61 | 211 | 4.3 | 11.3 | 0.00 | 0.00 | 0.00 | 66 | 1011.3 |
| 20260506123530 | 60 | 124 | 1.7 | 9.6 | 0.00 | 0.00 | 0.00 | 67 | 1011.4 |
| 20260506123045 | 60 | 103 | 4.3 | 9.6 | 0.00 | 0.00 | 0.00 | 67 | 1011.5 |
| 20260506122552 | 60 | 217 | 3.5 | 7.8 | 0.00 | 0.00 | 0.00 | 67 | 1011.6 |
| 20260506122004 | 60 | 214 | 3.5 | 7.0 | 0.00 | 0.00 | 0.00 | 68 | 1011.4 |
| 20260506121512 | 60 | 239 | 0.9 | 7.0 | 0.00 | 0.00 | 0.00 | 68 | 1011.4 |
| 20260506121022 | 59 | 237 | 0.9 | 4.3 | 0.00 | 0.00 | 0.00 | 69 | 1011.4 |
| 20260506120533 | 59 | 249 | 0.9 | 8.7 | 0.00 | 0.00 | 0.00 | 70 | 1011.3 |
| 20260506120047 | 58 | 147 | 1.7 | 6.1 | 0.00 | 0.00 | 0.00 | 70 | 1011.3 |
| 20260506115553 | 58 | 226 | 1.7 | 7.0 | 0.00 | 0.00 | 0.00 | 71 | 1011.3 |
| 20260506115004 | 58 | 261 | 0.9 | 3.5 | 0.00 | 0.00 | 0.00 | 71 | 1011.3 |
| 20260506114510 | 58 | 258 | 0.9 | 7.0 | 0.00 | 0.00 | 0.00 | 71 | 1011.2 |
| 20260506114010 | 57 | 226 | 0.9 | 7.0 | 0.00 | 0.00 | 0.00 | 71 | 1011.2 |
| 20260506113516 | 57 | 241 | 0.0 | 6.1 | 0.00 | 0.00 | 0.00 | 72 | 1011.3 |
| 20260506113016 | 57 | 228 | 1.7 | 6.1 | 0.00 | 0.00 | 0.00 | 72 | 1011.2 |
| 20260506112523 | 57 | 195 | 0.9 | 6.1 | 0.00 | 0.00 | 0.00 | 72 | 1011.3 |
| 20260506112026 | 57 | 249 | 0.0 | 4.3 | 0.00 | 0.00 | 0.00 | 72 | 1011.4 |
| 20260506111534 | 57 | 261 | 0.0 | 6.1 | 0.00 | 0.00 | 0.00 | 72 | 1011.3 |
| 20260506111042 | 56 | 222 | 0.9 | 6.1 | 0.00 | 0.00 | 0.00 | 73 | 1011.3 |
| 20260506110548 | 56 | 166 | 0.9 | 5.2 | 0.00 | 0.00 | 0.00 | 72 | 1011.5 |
| 20260506110056 | 56 | 340 | 0.9 | 5.2 | 0.00 | 0.00 | 0.00 | 73 | 1011.3 |
| 20260506105512 | 56 | 340 | 0.0 | 4.3 | 0.00 | 0.00 | 0.00 | 73 | 1011.2 |
| 20260506105019 | 55 | 340 | 0.0 | 3.5 | 0.00 | 0.00 | 0.00 | 72 | 1011.2 |
| 20260506104542 | 55 | 340 | 0.9 | 2.6 | 0.00 | 0.00 | 0.00 | 72 | 1011.2 |
| 20260506104044 | 55 | 340 | 0.0 | 3.5 | 0.00 | 0.00 | 0.00 | 72 | 1011.3 |
| 20260506103557 | 55 | 340 | 0.9 | 3.5 | 0.00 | 0.00 | 0.00 | 73 | 1011.4 |
| 20260506103004 | 55 | 160 | 0.0 | 0.9 | 0.00 | 0.00 | 0.00 | 73 | 1011.3 |
| 20260506102518 | 54 | 340 | 0.0 | 1.7 | 0.00 | 0.00 | 0.00 | 72 | 1011.3 |
| 20260506102028 | 54 | 136 | 0.0 | 2.6 | 0.00 | 0.00 | 0.00 | 72 | 1011.3 |
| 20260506101549 | 54 | 118 | 0.0 | 3.5 | 0.00 | 0.00 | 0.00 | 72 | 1011.3 |
| 20260506101052 | 54 | 135 | 0.0 | 4.3 | 0.00 | 0.00 | 0.00 | 72 | 1011.3 |
| 20260506100508 | 54 | 121 | 0.0 | 1.7 | 0.00 | 0.00 | 0.00 | 72 | 1011.2 |
| 20260506100028 | 54 | 133 | 0.0 | 2.6 | 0.00 | 0.00 | 0.00 | 72 | 1011.2 |
| 20260506095530 | 54 | 133 | 0.0 | 2.6 | 0.00 | 0.00 | 0.00 | 72 | 1011.1 |
| 20260506095040 | 54 | 117 | 0.0 | 3.5 | 0.00 | 0.00 | 0.00 | 72 | 1011.2 |
| 20260506094552 | 54 | 107 | 0.9 | 3.5 | 0.00 | 0.00 | 0.00 | 72 | 1011.1 |
| 20260506094004 | 54 | 135 | 0.0 | 2.6 | 0.00 | 0.00 | 0.00 | 72 | 1011.1 |
| 20260506093515 | 55 | 24 | 0.0 | 1.7 | 0.00 | 0.00 | 0.00 | 72 | 1011.0 |
| 20260506093022 | 55 | 15 | 0.0 | 4.3 | 0.00 | 0.00 | 0.00 | 72 | 1011.1 |
| 20260506092528 | 55 | 69 | 0.0 | 4.3 | 0.00 | 0.00 | 0.00 | 72 | 1011.1 |
| 20260506092028 | 55 | 139 | 0.0 | 4.3 | 0.00 | 0.00 | 0.00 | 72 | 1011.2 |
| 20260506091534 | 55 | 136 | 0.9 | 4.3 | 0.00 | 0.00 | 0.00 | 72 | 1011.2 |
| 20260506091034 | 55 | 133 | 0.0 | 4.3 | 0.00 | 0.00 | 0.00 | 72 | 1011.2 |
| 20260506090539 | 55 | 151 | 0.9 | 4.3 | 0.00 | 0.00 | 0.00 | 72 | 1011.2 |
| 20260506090040 | 55 | 161 | 0.9 | 2.6 | 0.00 | 0.00 | 0.00 | 72 | 1011.2 |
| 20260506085546 | 55 | 135 | 0.0 | 4.3 | 0.00 | 0.00 | 0.00 | 72 | 1011.4 |
| 20260506085046 | 55 | 151 | 0.0 | 4.3 | 0.00 | 0.00 | 0.00 | 72 | 1011.3 |
| 20260506084554 | 55 | 141 | 0.0 | 4.3 | 0.00 | 0.00 | 0.00 | 72 | 1011.4 |
| 20260506084056 | 55 | 133 | 0.9 | 6.1 | 0.00 | 0.00 | 0.00 | 72 | 1011.4 |
| 20260506084002 | 55 | 137 | 0.9 | 6.1 | 0.00 | 0.00 | 0.00 | 72 | 1011.3 |
| 20260506083506 | 55 | 164 | 1.7 | 6.1 | 0.00 | 0.00 | 0.00 | 72 | 1011.4 |
| 20260506083025 | 55 | 129 | 0.0 | 6.1 | 0.00 | 0.00 | 0.00 | 72 | 1011.5 |
| 20260506082527 | 55 | 154 | 0.9 | 6.1 | 0.00 | 0.00 | 0.00 | 73 | 1011.5 |
| 20260506082043 | 55 | 133 | 0.0 | 4.3 | 0.00 | 0.00 | 0.00 | 73 | 1011.4 |
| 20260506081554 | 55 | 155 | 0.9 | 4.3 | 0.00 | 0.00 | 0.00 | 73 | 1011.4 |
| 20260506081056 | 55 | 133 | 0.9 | 7.0 | 0.00 | 0.00 | 0.00 | 73 | 1011.4 |
| 20260506080556 | 55 | 146 | 1.7 | 5.2 | 0.00 | 0.00 | 0.00 | 73 | 1011.4 |
| 20260506073514 | 55 | 126 | 0.0 | 3.5 | 0.00 | 0.00 | 0.00 | 74 | 1011.6 |
| 20260506073010 | 55 | 163 | 0.0 | 4.3 | 0.00 | 0.00 | 0.00 | 74 | 1011.5 |
| 20260506072510 | 55 | 146 | 0.9 | 4.3 | 0.00 | 0.00 | 0.00 | 74 | 1011.6 |
| 20260506072019 | 55 | 199 | 0.9 | 7.0 | 0.00 | 0.00 | 0.00 | 74 | 1011.6 |
| 20260506071516 | 55 | 255 | 1.7 | 7.0 | 0.00 | 0.00 | 0.00 | 74 | 1011.7 |
| 20260506071026 | 56 | 238 | 0.0 | 5.2 | 0.00 | 0.00 | 0.00 | 74 | 1011.7 |
| 20260506070533 | 56 | 118 | 0.9 | 5.2 | 0.00 | 0.00 | 0.00 | 74 | 1011.6 |
| 20260506062005 | 57 | 206 | 0.0 | 4.3 | 0.00 | 0.00 | 0.00 | 74 | 1011.5 |
| 20260506061512 | 57 | 189 | 0.9 | 4.3 | 0.00 | 0.00 | 0.00 | 74 | 1011.6 |
| 20260506061018 | 57 | 178 | 0.0 | 4.3 | 0.00 | 0.00 | 0.00 | 74 | 1011.7 |
| 20260506060518 | 57 | 180 | 0.9 | 7.8 | 0.00 | 0.00 | 0.00 | 74 | 1011.7 |
| 20260506051051 | 58 | 207 | 2.6 | 7.0 | 0.00 | 0.00 | 0.00 | 73 | 1011.9 |
| 20260506050555 | 58 | 217 | 1.7 | 9.6 | 0.00 | 0.00 | 0.00 | 73 | 1011.9 |
| 20260506045038 | 58 | 226 | 0.9 | 7.0 | 0.00 | 0.00 | 0.00 | 72 | 1011.9 |
| 20260506044541 | 58 | 211 | 3.5 | 7.0 | 0.00 | 0.00 | 0.00 | 72 | 1012.0 |
| 20260506044055 | 58 | 144 | 2.6 | 8.7 | 0.00 | 0.00 | 0.00 | 72 | 1012.0 |
| 20260506043514 | 58 | 201 | 0.0 | 8.7 | 0.00 | 0.00 | 0.00 | 72 | 1012.1 |
| 20260506043019 | 58 | 289 | 2.6 | 7.8 | 0.00 | 0.00 | 0.00 | 72 | 1012.1 |
| 20260506042530 | 58 | 221 | 3.5 | 7.0 | 0.00 | 0.00 | 0.00 | 72 | 1012.1 |
| 20260506042030 | 58 | 270 | 2.6 | 6.1 | 0.00 | 0.00 | 0.00 | 72 | 1012.1 |
| 20260506041539 | 58 | 229 | 2.6 | 7.0 | 0.00 | 0.00 | 0.00 | 72 | 1012.1 |
| 20260506041035 | 58 | 255 | 2.6 | 7.8 | 0.00 | 0.00 | 0.00 | 73 | 1012.0 |
| 20260506040542 | 58 | 170 | 0.9 | 7.8 | 0.00 | 0.00 | 0.00 | 73 | 1012.1 |
| 20260506040045 | 58 | 219 | 1.7 | 8.7 | 0.00 | 0.00 | 0.00 | 73 | 1012.1 |
| 20260506035548 | 58 | 187 | 0.9 | 8.7 | 0.00 | 0.00 | 0.00 | 72 | 1012.1 |
| 20260506035055 | 58 | 222 | 1.7 | 7.0 | 0.00 | 0.00 | 0.00 | 72 | 1012.1 |
| 20260506034512 | 59 | 216 | 2.6 | 7.0 | 0.00 | 0.00 | 0.00 | 72 | 1012.0 |
| 20260506034021 | 59 | 203 | 1.7 | 7.0 | 0.00 | 0.00 | 0.00 | 72 | 1012.0 |
| 20260506033533 | 59 | 216 | 1.7 | 7.8 | 0.00 | 0.00 | 0.00 | 72 | 1012.0 |
| 20260506033040 | 59 | 251 | 1.7 | 7.8 | 0.00 | 0.00 | 0.00 | 72 | 1012.0 |
| 20260506032543 | 59 | 224 | 2.6 | 8.7 | 0.00 | 0.00 | 0.00 | 71 | 1012.0 |
| 20260506032043 | 59 | 74 | 2.6 | 8.7 | 0.00 | 0.00 | 0.00 | 71 | 1012.0 |
| 20260506031554 | 59 | 246 | 2.6 | 8.7 | 0.00 | 0.00 | 0.00 | 71 | 1012.0 |
| 20260506031007 | 59 | 230 | 1.7 | 9.6 | 0.00 | 0.00 | 0.00 | 71 | 1012.0 |
| 20260506030522 | 59 | 209 | 2.6 | 14.8 | 0.00 | 0.00 | 0.00 | 70 | 1012.1 |
| 20260506030024 | 59 | 226 | 3.5 | 14.8 | 0.00 | 0.00 | 0.00 | 70 | 1012.1 |
| 20260506025538 | 59 | 233 | 3.5 | 10.4 | 0.00 | 0.00 | 0.00 | 70 | 1012.1 |
| 20260506025047 | 60 | 229 | 2.6 | 9.6 | 0.00 | 0.00 | 0.00 | 69 | 1012.1 |
| 20260506024601 | 60 | 218 | 1.7 | 9.6 | 0.00 | 0.00 | 0.00 | 69 | 1012.1 |
| 20260506024502 | 60 | 237 | 3.5 | 10.4 | 0.00 | 0.00 | 0.00 | 69 | 1012.1 |
| 20260506024010 | 60 | 264 | 1.7 | 10.4 | 0.00 | 0.00 | 0.00 | 68 | 1012.0 |
| 20260506023524 | 60 | 225 | 3.5 | 9.6 | 0.00 | 0.00 | 0.00 | 68 | 1012.1 |
| 20260506023043 | 60 | 256 | 2.6 | 9.6 | 0.00 | 0.00 | 0.00 | 67 | 1012.1 |
| 20260506022545 | 60 | 215 | 2.6 | 7.8 | 0.00 | 0.00 | 0.00 | 67 | 1012.2 |
| 20260506022053 | 61 | 228 | 2.6 | 12.2 | 0.00 | 0.00 | 0.00 | 67 | 1012.1 |
| 20260506021518 | 61 | 240 | 5.2 | 12.2 | 0.00 | 0.00 | 0.00 | 67 | 1012.0 |
| 20260506021014 | 61 | 213 | 3.5 | 12.2 | 0.00 | 0.00 | 0.00 | 66 | 1011.9 |
| 20260506020527 | 61 | 239 | 3.5 | 10.4 | 0.00 | 0.00 | 0.00 | 66 | 1011.8 |
| 20260506020033 | 61 | 147 | 4.3 | 12.2 | 0.00 | 0.00 | 0.00 | 66 | 1011.8 |
| 20260506015536 | 61 | 275 | 1.7 | 11.3 | 0.00 | 0.00 | 0.00 | 66 | 1011.8 |
| 20260506015036 | 61 | 185 | 2.6 | 11.3 | 0.00 | 0.00 | 0.00 | 66 | 1011.7 |
| 20260506014544 | 61 | 217 | 6.1 | 11.3 | 0.00 | 0.00 | 0.00 | 66 | 1011.7 |
| 20260506014041 | 61 | 164 | 1.7 | 8.7 | 0.00 | 0.00 | 0.00 | 66 | 1011.6 |
| 20260506013547 | 61 | 210 | 5.2 | 12.2 | 0.00 | 0.00 | 0.00 | 66 | 1011.5 |
| 20260506013047 | 61 | 199 | 4.3 | 12.2 | 0.00 | 0.00 | 0.00 | 66 | 1011.6 |
| 20260506012553 | 61 | 245 | 2.6 | 10.4 | 0.00 | 0.00 | 0.00 | 67 | 1011.4 |
| 20260506012054 | 61 | 209 | 3.5 | 10.4 | 0.00 | 0.00 | 0.00 | 67 | 1011.4 |
| 20260506011559 | 60 | 231 | 2.6 | 8.7 | 0.00 | 0.00 | 0.00 | 67 | 1011.4 |
| 20260506011012 | 60 | 272 | 2.6 | 7.8 | 0.00 | 0.00 | 0.00 | 67 | 1011.4 |
| 20260506010515 | 61 | 221 | 3.5 | 7.0 | 0.00 | 0.00 | 0.00 | 66 | 1011.3 |
| 20260506010044 | 61 | 224 | 0.9 | 4.3 | 0.00 | 0.00 | 0.00 | 66 | 1011.2 |
| 20260506005537 | 61 | 265 | 1.7 | 11.3 | 0.00 | 0.00 | 0.00 | 66 | 1011.1 |
| 20260506005053 | 61 | 257 | 2.6 | 11.3 | 0.00 | 0.00 | 0.00 | 65 | 1011.1 |
| 20260506004557 | 61 | 236 | 6.1 | 9.6 | 0.00 | 0.00 | 0.00 | 66 | 1011.0 |
| 20260506004013 | 61 | 239 | 3.5 | 9.6 | 0.00 | 0.00 | 0.00 | 66 | 1011.0 |
| 20260506003523 | 61 | 214 | 3.5 | 7.8 | 0.00 | 0.00 | 0.00 | 66 | 1010.9 |
| 20260506003037 | 61 | 247 | 2.6 | 10.4 | 0.00 | 0.00 | 0.00 | 66 | 1010.8 |
| 20260506002545 | 61 | 226 | 4.3 | 10.4 | 0.00 | 0.00 | 0.00 | 65 | 1010.8 |
| 20260506002057 | 61 | 219 | 2.6 | 10.4 | 0.00 | 0.00 | 0.00 | 65 | 1010.8 |